• In Uzbekistan
  • List of Countries
  • For 7 days
  • Water Temperature
  • Satellite Maps
  • Weather Map
  • Weather Widgets
  • user-avatar
    Login

    Hourly Weather Salta

    Today, 14 December, Thursday

    Time Temperature Precipitation Wind Pressure Humidity
    00:00 +24°C° 0 mm 1 mps 651 mmHg 66%
    01:00 +24°C° 0 mm 1 mps 652 mmHg 67%
    02:00 +24°C° 0 mm 1 mps 652 mmHg 67%
    03:00 +24°C° 0 mm 1 mps 652 mmHg 69%
    04:00 +23°C° 0 mm 1 mps 652 mmHg 71%
    05:00 +23°C° 0 mm 1 mps 652 mmHg 72%
    06:00 +24°C° 0.2 mm 1 mps 653 mmHg 68%
    07:00 +25°C° 0.2 mm 1 mps 654 mmHg 64%
    08:00 +26°C° 0.2 mm 2 mps 654 mmHg 60%
    09:00 +27°C° 0 mm 2 mps 654 mmHg 57%
    10:00 +29°C° 0 mm 3 mps 655 mmHg 53%
    11:00 +30°C° 0 mm 3 mps 655 mmHg 49%
    12:00 +30°C° 0.2 mm 3 mps 654 mmHg 51%
    13:00 +29°C° 0.2 mm 3 mps 654 mmHg 53%
    14:00 +29°C° 0.2 mm 3 mps 653 mmHg 55%
    15:00 +29°C° 0.4 mm 3 mps 653 mmHg 57%
    16:00 +28°C° 0.4 mm 2 mps 652 mmHg 59%
    17:00 +27°C° 0.4 mm 2 mps 652 mmHg 61%
    18:00 +26°C° 0.3 mm 2 mps 652 mmHg 66%
    19:00 +25°C° 0.3 mm 1 mps 652 mmHg 71%
    20:00 +24°C° 0.3 mm 1 mps 652 mmHg 76%
    21:00 +24°C° 0.3 mm 1 mps 652 mmHg 77%
    22:00 +24°C° 0.3 mm 1 mps 652 mmHg 78%
    23:00 +23°C° 0.3 mm 1 mps 653 mmHg 79%

    Tomorrow, 15 December, Friday

    Time Temperature Precipitation Wind Pressure Humidity
    00:00 +23°C° 0.1 mm 1 mps 652 mmHg 79%
    01:00 +23°C° 0.1 mm 1 mps 652 mmHg 80%
    02:00 +23°C° 0.1 mm 1 mps 651 mmHg 80%
    03:00 +22°C° 0 mm 1 mps 651 mmHg 81%
    04:00 +22°C° 0 mm 1 mps 651 mmHg 81%
    05:00 +20°C° 0 mm 0 mps 651 mmHg 82%
    06:00 +23°C° 0 mm 1 mps 652 mmHg 75%
    07:00 +25°C° 0 mm 1 mps 652 mmHg 68%
    08:00 +27°C° 0 mm 1 mps 653 mmHg 61%
    09:00 +28°C° 0 mm 2 mps 653 mmHg 56%
    10:00 +29°C° 0 mm 3 mps 653 mmHg 52%
    11:00 +30°C° 0 mm 3 mps 653 mmHg 47%
    12:00 +31°C° 0 mm 3 mps 652 mmHg 45%
    13:00 +33°C° 0 mm 4 mps 651 mmHg 43%
    14:00 +34°C° 0 mm 4 mps 651 mmHg 40%
    15:00 +34°C° 0.4 mm 4 mps 650 mmHg 41%
    16:00 +33°C° 0.4 mm 4 mps 649 mmHg 42%
    17:00 +33°C° 0.4 mm 4 mps 649 mmHg 43%
    18:00 +30°C° 0.3 mm 3 mps 649 mmHg 48%
    19:00 +28°C° 0.3 mm 2 mps 649 mmHg 54%
    20:00 +26°C° 0.3 mm 2 mps 649 mmHg 59%
    21:00 +26°C° 0.4 mm 1 mps 649 mmHg 60%
    22:00 +25°C° 0.4 mm 1 mps 650 mmHg 61%
    23:00 +25°C° 0.4 mm 1 mps 650 mmHg 61%

    Day after tomorrow, 16 December, Saturday

    Time Temperature Precipitation Wind Pressure Humidity
    00:00 +25°C° 0.4 mm 1 mps 649 mmHg 62%
    01:00 +24°C° 0.4 mm 1 mps 649 mmHg 62%
    02:00 +24°C° 0.4 mm 2 mps 648 mmHg 62%
    03:00 +24°C° 0 mm 1 mps 648 mmHg 62%
    04:00 +24°C° 0 mm 1 mps 648 mmHg 63%
    05:00 +23°C° 0 mm 1 mps 648 mmHg 63%
    06:00 +25°C° 0 mm 1 mps 648 mmHg 58%
    07:00 +26°C° 0 mm 2 mps 649 mmHg 52%
    08:00 +28°C° 0 mm 2 mps 649 mmHg 47%
    09:00 +30°C° 0 mm 3 mps 649 mmHg 43%
    10:00 +31°C° 0 mm 3 mps 650 mmHg 39%
    11:00 +34°C° 0 mm 4 mps 650 mmHg 35%
    12:00 +35°C° 0.1 mm 4 mps 649 mmHg 34%
    13:00 +35°C° 0.1 mm 4 mps 649 mmHg 32%
    14:00 +36°C° 0.1 mm 4 mps 648 mmHg 31%
    15:00 +36°C° 0.3 mm 4 mps 647 mmHg 32%
    16:00 +35°C° 0.3 mm 4 mps 647 mmHg 33%
    17:00 +35°C° 0.3 mm 4 mps 646 mmHg 35%
    18:00 +33°C° 0.1 mm 3 mps 646 mmHg 39%
    19:00 +30°C° 0.1 mm 2 mps 646 mmHg 44%
    20:00 +28°C° 0.1 mm 1 mps 646 mmHg 49%
    21:00 +27°C° 0.1 mm 1 mps 647 mmHg 49%
    22:00 +27°C° 0.1 mm 1 mps 647 mmHg 49%
    23:00 +27°C° 0.1 mm 1 mps 648 mmHg 49%

    17 December, Sunday

    Time Temperature Precipitation Wind Pressure Humidity
    00:00 +27°C° 0 mm 1 mps 648 mmHg 49%
    01:00 +27°C° 0 mm 1 mps 647 mmHg 48%
    02:00 +26°C° 0 mm 2 mps 647 mmHg 48%
    03:00 +26°C° 0 mm 1 mps 647 mmHg 48%
    04:00 +26°C° 0 mm 1 mps 647 mmHg 48%
    05:00 +26°C° 0 mm 1 mps 647 mmHg 48%
    06:00 +26°C° 0 mm 3 mps 649 mmHg 48%
    07:00 +27°C° 0 mm 5 mps 651 mmHg 48%
    08:00 +28°C° 0 mm 6 mps 653 mmHg 48%
    09:00 +27°C° 0.1 mm 6 mps 653 mmHg 52%
    10:00 +27°C° 0.1 mm 5 mps 654 mmHg 55%
    11:00 +27°C° 0.1 mm 5 mps 655 mmHg 58%
    12:00 +26°C° 0.4 mm 5 mps 655 mmHg 61%
    13:00 +26°C° 0.4 mm 4 mps 654 mmHg 63%
    14:00 +25°C° 0.4 mm 4 mps 654 mmHg 65%
    15:00 +25°C° 0.1 mm 4 mps 654 mmHg 64%
    16:00 +25°C° 0.1 mm 3 mps 653 mmHg 62%
    17:00 +26°C° 0.1 mm 3 mps 653 mmHg 60%
    18:00 +24°C° 0.1 mm 3 mps 653 mmHg 65%
    19:00 +23°C° 0.1 mm 2 mps 653 mmHg 69%
    20:00 +21°C° 0.1 mm 2 mps 654 mmHg 74%
    21:00 +20°C° 0.3 mm 2 mps 654 mmHg 75%
    22:00 +21°C° 0.3 mm 1 mps 655 mmHg 76%
    23:00 +21°C° 0.3 mm 1 mps 655 mmHg 76%

    18 December, Monday

    Time Temperature Precipitation Wind Pressure Humidity
    00:00 +20°C° 0.6 mm 1 mps 654 mmHg 76%
    01:00 +20°C° 0.6 mm 1 mps 654 mmHg 76%
    02:00 +20°C° 0.6 mm 1 mps 654 mmHg 76%
    03:00 +20°C° 0.4 mm 1 mps 653 mmHg 75%
    04:00 +20°C° 0.4 mm 1 mps 653 mmHg 74%
    05:00 +20°C° 0.4 mm 1 mps 653 mmHg 73%
    06:00 +21°C° 0.1 mm 1 mps 653 mmHg 70%
    07:00 +22°C° 0.1 mm 1 mps 654 mmHg 66%
    08:00 +23°C° 0.1 mm 1 mps 654 mmHg 63%
    09:00 +25°C° 0 mm 2 mps 654 mmHg 57%
    10:00 +27°C° 0 mm 2 mps 654 mmHg 51%
    11:00 +29°C° 0 mm 2 mps 654 mmHg 45%
    12:00 +29°C° 0.1 mm 3 mps 654 mmHg 44%
    13:00 +30°C° 0.1 mm 3 mps 653 mmHg 43%
    14:00 +30°C° 0.1 mm 3 mps 653 mmHg 42%
    15:00 +30°C° 0.2 mm 3 mps 652 mmHg 44%
    16:00 +29°C° 0.2 mm 3 mps 652 mmHg 46%
    17:00 +29°C° 0.2 mm 3 mps 651 mmHg 48%
    18:00 +27°C° 0.1 mm 2 mps 651 mmHg 54%
    19:00 +26°C° 0.1 mm 2 mps 651 mmHg 60%
    20:00 +24°C° 0.1 mm 1 mps 651 mmHg 66%
    21:00 +24°C° 0.5 mm 1 mps 651 mmHg 69%
    22:00 +23°C° 0.5 mm 1 mps 652 mmHg 72%
    23:00 +23°C° 0.5 mm 1 mps 652 mmHg 75%

    19 December, Tuesday

    Time Temperature Precipitation Wind Pressure Humidity
    00:00 +22°C° 1.2 mm 1 mps 651 mmHg 77%
    01:00 +22°C° 1.2 mm 1 mps 651 mmHg 78%
    02:00 +22°C° 1.2 mm 1 mps 650 mmHg 80%
    03:00 +22°C° 0.7 mm 1 mps 650 mmHg 82%
    04:00 +21°C° 0.7 mm 1 mps 650 mmHg 84%
    05:00 +19°C° 0.7 mm 0 mps 650 mmHg 85%
    06:00 +22°C° 0.3 mm 1 mps 651 mmHg 82%
    07:00 +23°C° 0.3 mm 1 mps 651 mmHg 79%
    08:00 +23°C° 0.3 mm 1 mps 652 mmHg 75%
    09:00 +25°C° 0.6 mm 1 mps 652 mmHg 70%
    10:00 +26°C° 0.6 mm 2 mps 652 mmHg 65%
    11:00 +27°C° 0.6 mm 2 mps 652 mmHg 59%
    12:00 +28°C° 0.3 mm 2 mps 651 mmHg 57%
    13:00 +29°C° 0.3 mm 3 mps 651 mmHg 54%
    14:00 +30°C° 0.3 mm 3 mps 651 mmHg 52%
    15:00 +30°C° 0.3 mm 3 mps 650 mmHg 53%
    16:00 +29°C° 0.3 mm 3 mps 650 mmHg 55%
    17:00 +29°C° 0.3 mm 3 mps 649 mmHg 56%
    18:00 +28°C° 0.5 mm 2 mps 650 mmHg 62%
    19:00 +26°C° 0.5 mm 2 mps 650 mmHg 68%
    20:00 +24°C° 0.5 mm 1 mps 650 mmHg 74%
    21:00 +24°C° 0.2 mm 1 mps 650 mmHg 75%
    22:00 +24°C° 0.2 mm 1 mps 651 mmHg 77%
    23:00 +23°C° 0.2 mm 1 mps 651 mmHg 78%
    Show more